User: anonymous   Login
Location: Unspecified
(0.0000°N, 0.0000°E)
Time: 22:47:56
(UTC+00:00)
Language:

Optus B3 - Orbit

View from above orbital plane
View from above orbital plane
View from above satellite
View from above satellite

Ground track
Ground track

The orbit data is extracted from the following two-line orbital elements,

1 23227U 94055A   18317.20652100  .00000008  00000-0  00000+0 0  9992
2 23227   8.1707  47.0635 0006506 276.9509  26.2130  0.98696434 88527
Epoch (UTC): 13 November 2018 04:57:23
Eccentricity: 0.0006506
inclination: 8.1707°
perigee height: 36206 km
apogee height: 36261 km
right ascension of ascending node: 47.0635°
argument of perigee: 276.9509°
revolutions per day: 0.98696434
mean anomaly at epoch: 26.2130°
orbit number at epoch: 8852

The dashed part of the orbit path shows where the satellite is in the earth's shadow,  

DLR